Change the Weather History Date:

Friday, December 14, 2012

  Actual Average Record
Temperature  
Mean Temperature 28 °F -  
Max Temperature 32 °F 35 °F 51 °F (2000)
Min Temperature 23 °F 23 °F 5 °F (2001)
Degree Days  
Heating Degree Days 38    
Moisture  
Dew Point 22 °F    
Average Humidity 79    
Maximum Humidity 93    
Minimum Humidity 69    
Precipitation  
Precipitation 0.00 in - - ()
Sea Level Pressure  
Sea Level Pressure 30.16 in    
Wind  
Wind Speed 9 mph ()    
Max Wind Speed 13 mph    
Max Gust Speed -    
Visibility 5.8 miles    
Events Snow    
Averages and records for this station are not official NWS values.
T = Trace of Precipitation, MM = Missing Value Source: Averaged Metar Reports

Daily Weather History Graph

Daily Weather History Graph

Search for Another Location

Airport or City:

Trip Planner

Search our weather history database for the weather conditions in past years. The results will help you decide how hot, cold, wet, or windy it might be!

Date:

Astronomy

Dec. 14, 2012 Rise Set
Actual Time 7:23 AM CET 3:52 PM CET
Civil Twilight 6:47 AM CET 4:28 PM CET
Nautical Twilight 6:08 AM CET 5:07 PM CET
Astronomical Twilight 5:30 AM CET 5:44 PM CET
Moon 8:09 AM CET (12/14) 5:27 PM CET (12/14)
Length of Visible Light 9h 40m
Length of Day
8h 29m
New Moon, 2% of the Moon is Illuminated
Dec 14
New Moon
Dec 20
First Quarter
Dec 28
Full
Jan 5
Last Quarter
Jan 11
New

Hourly Weather History & Observations

Time (CET) Temp. Windchill Dew Point Humidity Pressure Visibility Wind Dir Wind Speed Gust Speed Precip Events Conditions
12:30 AM 23.0 °F 11.1 °F 17.6 °F 80% 30.21 in 6.2 mi ENE 12.7 mph - N/A   Overcast
2:00 AM 23.0 °F 12.4 °F 19.4 °F 86% 30.21 in 6.2 mi ENE 10.4 mph - N/A   Overcast
2:30 AM 23.0 °F 12.4 °F 19.4 °F 86% 30.21 in 6.2 mi ENE 10.4 mph - N/A   Overcast
3:00 AM 23.0 °F 12.4 °F 19.4 °F 86% 30.21 in 6.2 mi ENE 10.4 mph - N/A   Overcast
3:30 AM 23.0 °F 13.1 °F 19.4 °F 86% 30.21 in 6.2 mi ENE 9.2 mph - N/A   Mostly Cloudy
4:00 AM 23.0 °F 11.7 °F 19.4 °F 86% 30.18 in 6.2 mi ENE 11.5 mph - N/A   Mostly Cloudy
4:30 AM 23.0 °F 13.1 °F 19.4 °F 86% 30.18 in 5.0 mi ENE 9.2 mph - N/A   Mostly Cloudy
5:00 AM 23.0 °F 12.4 °F 21.2 °F 93% 30.18 in 5.0 mi ENE 10.4 mph - N/A   Mostly Cloudy
5:30 AM 23.0 °F 13.1 °F 17.6 °F 80% 30.18 in 5.0 mi East 9.2 mph - N/A   Mostly Cloudy
6:00 AM 24.8 °F 14.6 °F 19.4 °F 80% 30.18 in 5.0 mi East 10.4 mph - N/A   Mostly Cloudy
6:30 AM 24.8 °F 14.6 °F 19.4 °F 80% 30.18 in 5.0 mi East 10.4 mph - N/A   Mostly Cloudy
7:00 AM 24.8 °F 15.3 °F 19.4 °F 80% 30.18 in 5.0 mi East 9.2 mph - N/A   Mostly Cloudy
7:30 AM 24.8 °F 14.6 °F 19.4 °F 80% 30.18 in 6.2 mi East 10.4 mph - N/A   Mostly Cloudy
8:00 AM 24.8 °F 14.6 °F 19.4 °F 80% 30.18 in 6.2 mi East 10.4 mph - N/A   Mostly Cloudy
8:30 AM 24.8 °F 14.6 °F 19.4 °F 80% 30.18 in 6.2 mi East 10.4 mph - N/A   Mostly Cloudy
9:00 AM 26.6 °F 17.5 °F 19.4 °F 74% 30.18 in 6.2 mi East 9.2 mph - N/A   Overcast
9:30 AM 26.6 °F 17.5 °F 19.4 °F 74% 30.18 in 6.2 mi East 9.2 mph - N/A   Overcast
10:00 AM 26.6 °F 18.2 °F 19.4 °F 74% 30.18 in 5.0 mi ENE 8.1 mph - N/A   Overcast
10:30 AM 26.6 °F 18.2 °F 21.2 °F 80% 30.18 in 5.0 mi ENE 8.1 mph - N/A   Overcast
11:00 AM 26.6 °F 17.5 °F 21.2 °F 80% 30.18 in 5.0 mi East 9.2 mph - N/A   Overcast
11:30 AM 26.6 °F 17.5 °F 21.2 °F 80% 30.18 in 5.0 mi East 9.2 mph - N/A   Overcast
12:00 PM 28.4 °F 19.7 °F 21.2 °F 74% 30.18 in 5.0 mi East 9.2 mph - N/A   Overcast
12:30 PM 28.4 °F 20.4 °F 21.2 °F 74% 30.18 in 6.2 mi East 8.1 mph - N/A   Mostly Cloudy
1:00 PM 30.2 °F 22.6 °F 21.2 °F 69% 30.15 in 6.2 mi East 8.1 mph - N/A   Mostly Cloudy
1:30 PM 28.4 °F 19.7 °F 21.2 °F 74% 30.15 in 6.2 mi East 9.2 mph - N/A   Mostly Cloudy
2:00 PM 30.2 °F 21.9 °F 21.2 °F 69% 30.15 in - ENE 9.2 mph - N/A   Clear
2:30 PM 30.2 °F 21.9 °F 23.0 °F 75% 30.15 in - East 9.2 mph - N/A   Clear
3:00 PM 30.2 °F 24.3 °F 23.0 °F 75% 30.15 in - ENE 5.8 mph - N/A   Clear
3:30 PM 30.2 °F 23.4 °F 23.0 °F 75% 30.15 in - ENE 6.9 mph - N/A   Clear
4:00 PM 30.2 °F 23.4 °F 23.0 °F 75% 30.15 in - ENE 6.9 mph - N/A   Clear
4:30 PM 30.2 °F 22.6 °F 23.0 °F 75% 30.15 in 5.0 mi East 8.1 mph - N/A   Unknown
5:00 PM 30.2 °F 25.4 °F 24.8 °F 80% 30.15 in 5.0 mi ENE 4.6 mph - N/A   Overcast
5:30 PM 30.2 °F 25.4 °F 24.8 °F 80% 30.15 in 6.2 mi ENE 4.6 mph - N/A   Overcast
6:00 PM 30.2 °F 23.4 °F 24.8 °F 80% 30.12 in 6.2 mi ENE 6.9 mph - N/A Snow Light Snow
6:30 PM 30.2 °F 24.3 °F 24.8 °F 80% 30.15 in - ENE 5.8 mph - N/A   Clear
7:00 PM 30.2 °F 22.6 °F 24.8 °F 80% 30.12 in - East 8.1 mph - N/A   Clear
7:30 PM 30.2 °F 22.6 °F 24.8 °F 80% 30.12 in 6.2 mi East 8.1 mph - N/A   Mostly Cloudy
8:00 PM 30.2 °F 21.3 °F 24.8 °F 80% 30.12 in 6.2 mi East 10.4 mph - N/A   Mostly Cloudy
8:30 PM 30.2 °F 23.4 °F 24.8 °F 80% 30.12 in 6.2 mi East 6.9 mph - N/A   Mostly Cloudy
9:00 PM 30.2 °F 22.6 °F 24.8 °F 80% 30.12 in 6.2 mi East 8.1 mph - N/A   Overcast
9:30 PM 30.2 °F 23.4 °F 24.8 °F 80% 30.12 in 6.2 mi East 6.9 mph - N/A   Overcast
10:00 PM 32.0 °F 24.2 °F 24.8 °F 75% 30.09 in 6.2 mi East 9.2 mph - N/A   Overcast
10:30 PM 32.0 °F 23.6 °F 24.8 °F 75% 30.09 in 6.2 mi East 10.4 mph - N/A   Overcast
11:00 PM 32.0 °F 24.2 °F 24.8 °F 75% 30.09 in 6.2 mi East 9.2 mph - N/A   Overcast
11:30 PM 32.0 °F 24.2 °F 24.8 °F 75% 30.09 in 6.2 mi East 9.2 mph - N/A   Overcast